Regional Weather Roundup
Issued by NWS

Home | Current Version | Previous Version | Graphics & Text | Print | Product List | Glossary On
Versions: 1 2 3 4 5 6 7 8 9 10 11 12 13 14 15 16 17 18 19 20 21 22 23 24 25 26 27 28 29 30 31 32 33 34 35 36 37 38 39 40 41 42 43 44 45 46 47 48 49 50
000
ASUS45 KBOI 061110
RWRID

IDAHO REGIONAL WEATHER ROUNDUP
NATIONAL WEATHER SERVICE BOISE ID
500 AM MDT MON JUL 06 2015

NOTE: "FAIR" INDICATES FEW OR NO CLOUDS BELOW 12000 FEET
WITH NO SIGNIFICANT WEATHER AND/OR OBSTRUCTIONS TO VISIBILITY

IDZ012-014-061200-
SOUTHWEST IDAHO


CITY           SKY/WX    TMP DP  RH WIND       PRES   REMARKS
BOISE          PTCLDY    70  54  56 SE5       30.01R
CALDWELL       PTCLDY    64  52  63 E3        30.00S
MOUNTAIN HOME  CLOUDY    69  48  46 NW5       30.00S
$$

IDZ016-017-061200-
SOUTHCENTRAL IDAHO


CITY           SKY/WX    TMP DP  RH WIND       PRES   REMARKS
BURLEY         CLOUDY    61  53  75 CALM      30.09R
JEROME         CLOUDY    67  54  63 S3        30.09R
TWIN FALLS     CLOUDY    70  51  51 S10       30.06S
$$

IDZ019>023-061200-
SOUTHEAST IDAHO


CITY           SKY/WX    TMP DP  RH WIND       PRES   REMARKS
IDAHO FALLS    CLOUDY    61  54  77 N10       30.15R
POCATELLO      PTCLDY    66  54  65 SW12      30.12R
REXBURG        LGT RAIN  58  54  86 NE8       30.17R
$$

IDZ006-010-011-018-031-032-061200-
CENTRAL IDAHO MOUNTAINS


CITY           SKY/WX    TMP DP  RH WIND       PRES   REMARKS
MCCALL         CLEAR     53  49  86 NE3       30.13R
HAILEY         CLOUDY    61  45  55 NW7       30.18R
STANLEY          N/A     44  39  82 CALM      30.26S
SALMON         CLEAR     61  48  63 N5        30.14R
CHALLIS        PTCLDY    61  40  45 CALM      30.15R
$$

IDZ002-004-006-007-026-061200-
NORTHERN IDAHO


CITY           SKY/WX    TMP DP  RH WIND       PRES   REMARKS
LEWISTON       CLEAR     69  51  52 E5        29.96R
LOWELL           N/A     64  54  69 CALM      30.00R
COEUR D`ALENE  CLEAR     57  43  58 N9        30.06S
MULLAN PASS    CLEAR     47  42  83 SE13G28   30.22F
$$


USA.gov is the U.S. government's official web portal to all federal, state and local government web resources and services.